Time,TemperatureF,DewpointF,PressureIn,WindDirection,WindDirectionDegrees,WindSpeedMPH,WindSpeedGustMPH,Humidity,HourlyPrecipIn,Conditions,Clouds,dailyrainin,SoftwareType,DateUTC
2013-08-10 00:00:00,85.7,64.4,29.95,North,0,0.0,0.0,49,0.00,,,0.00,WUHU216HW,2013-08-10 05:00:00,
2013-08-10 00:05:00,85.7,64.4,29.95,North,0,0.0,0.0,49,0.00,,,0.00,WUHU216HW,2013-08-10 05:05:00,
2013-08-10 00:30:00,85.5,64.9,29.95,North,0,0.0,0.0,50,0.00,,,0.00,WUHU216HW,2013-08-10 05:30:00,
2013-08-10 00:35:00,85.5,64.9,29.95,North,0,0.0,0.0,50,0.00,,,0.00,WUHU216HW,2013-08-10 05:35:00,
2013-08-10 01:00:00,84.4,64.5,29.96,North,0,0.0,0.0,51,0.00,,,0.00,WUHU216HW,2013-08-10 06:00:00,
2013-08-10 01:05:00,84.4,64.5,29.96,North,0,0.0,0.0,51,0.00,,,0.00,WUHU216HW,2013-08-10 06:05:00,
2013-08-10 01:30:00,84.2,66.3,29.96,North,0,0.0,0.0,55,0.00,,,0.00,WUHU216HW,2013-08-10 06:30:00,
2013-08-10 01:35:00,84.2,66.3,29.96,North,0,0.0,0.0,55,0.00,,,0.00,WUHU216HW,2013-08-10 06:35:00,
2013-08-10 02:00:00,83.9,66.5,29.96,North,0,0.0,0.0,56,0.00,,,0.00,WUHU216HW,2013-08-10 07:00:00,
2013-08-10 02:05:00,83.9,66.5,29.96,North,0,0.0,0.0,56,0.00,,,0.00,WUHU216HW,2013-08-10 07:05:00,
2013-08-10 02:30:00,83.7,67.9,29.96,North,0,0.0,0.0,59,0.00,,,0.00,WUHU216HW,2013-08-10 07:30:00,
2013-08-10 02:35:00,83.7,67.9,29.96,North,0,0.0,0.0,59,0.00,,,0.00,WUHU216HW,2013-08-10 07:35:00,
2013-08-10 03:00:00,82.8,67.0,29.96,North,0,0.0,0.0,59,0.00,,,0.00,WUHU216HW,2013-08-10 08:00:00,
2013-08-10 03:05:00,82.8,67.0,29.96,North,0,0.0,0.0,59,0.00,,,0.00,WUHU216HW,2013-08-10 08:05:00,
2013-08-10 03:30:00,82.1,67.2,29.97,North,0,0.0,0.0,61,0.00,,,0.00,WUHU216HW,2013-08-10 08:30:00,
2013-08-10 03:35:00,82.1,67.2,29.97,North,0,0.0,0.0,61,0.00,,,0.00,WUHU216HW,2013-08-10 08:35:00,
2013-08-10 04:00:00,81.0,66.8,29.97,North,0,0.0,0.0,62,0.00,,,0.00,WUHU216HW,2013-08-10 09:00:00,
2013-08-10 04:05:00,81.0,66.8,29.97,North,0,0.0,0.0,62,0.00,,,0.00,WUHU216HW,2013-08-10 09:05:00,
2013-08-10 04:30:00,80.3,67.0,29.96,North,0,0.0,0.0,64,0.00,,,0.00,WUHU216HW,2013-08-10 09:30:00,
2013-08-10 04:35:00,80.3,67.0,29.96,North,0,0.0,0.0,64,0.00,,,0.00,WUHU216HW,2013-08-10 09:35:00,
2013-08-10 05:00:00,80.1,67.2,29.96,North,0,0.0,0.0,65,0.00,,,0.00,WUHU216HW,2013-08-10 10:00:00,
2013-08-10 05:05:00,80.1,67.2,29.96,North,0,0.0,0.0,65,0.00,,,0.00,WUHU216HW,2013-08-10 10:05:00,
2013-08-10 05:30:00,79.6,67.6,29.97,North,0,0.0,0.0,67,0.00,,,0.00,WUHU216HW,2013-08-10 10:30:00,
2013-08-10 05:35:00,79.6,67.6,29.97,North,0,0.0,0.0,67,0.00,,,0.00,WUHU216HW,2013-08-10 10:35:00,
2013-08-10 06:00:00,79.0,68.0,29.97,North,0,0.0,0.0,69,0.00,,,0.00,WUHU216HW,2013-08-10 11:00:00,
2013-08-10 06:05:00,79.0,68.0,29.97,North,0,0.0,0.0,69,0.00,,,0.00,WUHU216HW,2013-08-10 11:05:00,
2013-08-10 06:30:00,78.8,68.6,29.98,North,0,0.0,0.0,71,0.00,,,0.00,WUHU216HW,2013-08-10 11:30:00,
2013-08-10 06:35:00,78.8,68.6,29.98,North,0,0.0,0.0,71,0.00,,,0.00,WUHU216HW,2013-08-10 11:35:00,
2013-08-10 07:00:00,78.5,69.0,29.99,North,0,0.0,0.0,73,0.00,,,0.00,WUHU216HW,2013-08-10 12:00:00,
2013-08-10 07:05:00,78.5,69.0,29.99,North,0,0.0,0.0,73,0.00,,,0.00,WUHU216HW,2013-08-10 12:05:00,
2013-08-10 07:30:00,78.7,69.7,30.00,North,0,0.0,0.0,74,0.00,,,0.00,WUHU216HW,2013-08-10 12:30:00,
2013-08-10 07:35:00,78.7,69.7,30.00,North,0,0.0,0.0,74,0.00,,,0.00,WUHU216HW,2013-08-10 12:35:00,
2013-08-10 08:00:00,79.6,70.6,30.01,North,0,0.0,0.0,74,0.00,,,0.00,WUHU216HW,2013-08-10 13:00:00,
2013-08-10 08:05:00,79.6,70.6,30.01,North,0,0.0,0.0,74,0.00,,,0.00,WUHU216HW,2013-08-10 13:05:00,
2013-08-10 08:30:00,80.8,71.4,30.01,North,0,0.0,0.0,73,0.00,,,0.00,WUHU216HW,2013-08-10 13:30:00,
2013-08-10 08:35:00,80.8,71.4,30.01,North,0,0.0,0.0,73,0.00,,,0.00,WUHU216HW,2013-08-10 13:35:00,
2013-08-10 09:00:00,82.1,73.0,30.02,North,0,0.0,0.0,74,0.00,,,0.00,WUHU216HW,2013-08-10 14:00:00,
2013-08-10 09:05:00,82.1,73.0,30.02,North,0,0.0,0.0,74,0.00,,,0.00,WUHU216HW,2013-08-10 14:05:00,
2013-08-10 09:30:00,83.0,73.0,30.03,North,0,0.0,0.0,72,0.00,,,0.00,WUHU216HW,2013-08-10 14:30:00,
2013-08-10 09:35:00,83.0,73.0,30.03,North,0,0.0,0.0,72,0.00,,,0.00,WUHU216HW,2013-08-10 14:35:00,
2013-08-10 10:00:00,83.9,73.9,30.03,North,0,0.0,0.0,72,0.00,,,0.00,WUHU216HW,2013-08-10 15:00:00,
2013-08-10 10:05:00,83.9,73.9,30.03,North,0,0.0,0.0,72,0.00,,,0.00,WUHU216HW,2013-08-10 15:05:00,
2013-08-10 10:30:00,85.1,74.3,30.02,North,0,0.0,0.0,70,0.00,,,0.00,WUHU216HW,2013-08-10 15:30:00,
2013-08-10 10:35:00,85.1,74.3,30.02,North,0,0.0,0.0,70,0.00,,,0.00,WUHU216HW,2013-08-10 15:35:00,
2013-08-10 11:00:00,86.6,74.4,30.04,North,0,0.0,0.0,67,0.00,,,0.00,WUHU216HW,2013-08-10 16:00:00,
2013-08-10 11:05:00,86.6,74.4,30.04,North,0,0.0,0.0,67,0.00,,,0.00,WUHU216HW,2013-08-10 16:05:00,
2013-08-10 11:30:00,87.7,74.4,30.04,North,0,0.0,0.0,65,0.00,,,0.00,WUHU216HW,2013-08-10 16:30:00,
2013-08-10 11:35:00,87.7,74.4,30.04,North,0,0.0,0.0,65,0.00,,,0.00,WUHU216HW,2013-08-10 16:35:00,
2013-08-10 12:00:00,89.5,74.3,30.04,North,0,0.0,0.0,61,0.00,,,0.00,WUHU216HW,2013-08-10 17:00:00,
2013-08-10 12:05:00,89.5,74.3,30.04,North,0,0.0,0.0,61,0.00,,,0.00,WUHU216HW,2013-08-10 17:05:00,
2013-08-10 12:30:00,91.3,74.3,30.04,North,0,0.0,0.0,58,0.00,,,0.00,WUHU216HW,2013-08-10 17:30:00,
2013-08-10 12:35:00,91.3,74.3,30.04,North,0,0.0,0.0,58,0.00,,,0.00,WUHU216HW,2013-08-10 17:35:00,
2013-08-10 13:00:00,93.2,74.1,30.04,North,0,0.0,0.0,54,0.00,,,0.00,WUHU216HW,2013-08-10 18:00:00,
2013-08-10 13:05:00,93.2,74.1,30.04,North,0,0.0,0.0,54,0.00,,,0.00,WUHU216HW,2013-08-10 18:05:00,
2013-08-10 13:30:00,94.5,73.6,30.03,North,0,0.0,0.0,51,0.00,,,0.00,WUHU216HW,2013-08-10 18:30:00,
2013-08-10 13:35:00,94.5,73.6,30.03,North,0,0.0,0.0,51,0.00,,,0.00,WUHU216HW,2013-08-10 18:35:00,
2013-08-10 14:00:00,95.8,74.3,30.02,North,0,0.0,0.0,50,0.00,,,0.00,WUHU216HW,2013-08-10 19:00:00,
2013-08-10 14:05:00,95.8,74.3,30.02,North,0,0.0,0.0,50,0.00,,,0.00,WUHU216HW,2013-08-10 19:05:00,
2013-08-10 14:30:00,96.3,73.5,30.01,North,0,0.0,0.0,48,0.00,,,0.00,WUHU216HW,2013-08-10 19:30:00,
2013-08-10 14:35:00,96.3,73.5,30.01,North,0,0.0,0.0,48,0.00,,,0.00,WUHU216HW,2013-08-10 19:35:00,
2013-08-10 15:00:00,97.2,72.9,29.99,North,0,0.0,0.0,46,0.00,,,0.00,WUHU216HW,2013-08-10 20:00:00,
2013-08-10 15:05:00,97.2,72.9,29.99,North,0,0.0,0.0,46,0.00,,,0.00,WUHU216HW,2013-08-10 20:05:00,
2013-08-10 15:30:00,97.9,72.9,29.98,North,0,0.0,0.0,45,0.00,,,0.00,WUHU216HW,2013-08-10 20:30:00,
2013-08-10 15:35:00,97.9,72.9,29.98,North,0,0.0,0.0,45,0.00,,,0.00,WUHU216HW,2013-08-10 20:35:00,
2013-08-10 16:00:00,97.6,71.2,29.97,North,0,0.0,0.0,43,0.00,,,0.00,WUHU216HW,2013-08-10 21:00:00,
2013-08-10 16:05:00,97.6,71.2,29.97,North,0,0.0,0.0,43,0.00,,,0.00,WUHU216HW,2013-08-10 21:05:00,
2013-08-10 16:30:00,98.3,71.2,29.96,North,0,0.0,0.0,42,0.00,,,0.00,WUHU216HW,2013-08-10 21:30:00,
2013-08-10 16:35:00,98.3,71.2,29.96,North,0,0.0,0.0,42,0.00,,,0.00,WUHU216HW,2013-08-10 21:35:00,
2013-08-10 17:00:00,97.9,70.9,29.96,North,0,0.0,0.0,42,0.00,,,0.00,WUHU216HW,2013-08-10 22:00:00,
2013-08-10 17:05:00,97.9,70.9,29.96,North,0,0.0,0.0,42,0.00,,,0.00,WUHU216HW,2013-08-10 22:05:00,
2013-08-10 17:30:00,97.6,70.6,29.96,North,0,0.0,0.0,42,0.00,,,0.00,WUHU216HW,2013-08-10 22:30:00,
2013-08-10 17:35:00,97.6,70.6,29.96,North,0,0.0,0.0,42,0.00,,,0.00,WUHU216HW,2013-08-10 22:35:00,
2013-08-10 18:00:00,97.4,70.4,29.94,North,0,0.0,0.0,42,0.00,,,0.00,WUHU216HW,2013-08-10 23:00:00,
2013-08-10 18:05:00,97.4,70.4,29.94,North,0,0.0,0.0,42,0.00,,,0.00,WUHU216HW,2013-08-10 23:05:00,
2013-08-10 18:30:00,96.1,69.9,29.94,North,0,0.0,0.0,43,0.00,,,0.00,WUHU216HW,2013-08-10 23:30:00,
2013-08-10 18:35:00,96.1,69.9,29.94,North,0,0.0,0.0,43,0.00,,,0.00,WUHU216HW,2013-08-10 23:35:00,
2013-08-10 19:00:00,95.6,69.5,29.94,North,0,0.0,0.0,43,0.00,,,0.00,WUHU216HW,2013-08-11 00:00:00,
2013-08-10 19:05:00,95.6,69.5,29.94,North,0,0.0,0.0,43,0.00,,,0.00,WUHU216HW,2013-08-11 00:05:00,
2013-08-10 19:30:00,94.7,68.6,29.95,North,0,0.0,0.0,43,0.00,,,0.00,WUHU216HW,2013-08-11 00:30:00,
2013-08-10 19:35:00,94.7,68.6,29.95,North,0,0.0,0.0,43,0.00,,,0.00,WUHU216HW,2013-08-11 00:35:00,
2013-08-10 20:00:00,94.0,68.0,29.96,North,0,0.0,0.0,43,0.00,,,0.00,WUHU216HW,2013-08-11 01:00:00,
2013-08-10 20:05:00,94.0,68.0,29.96,North,0,0.0,0.0,43,0.00,,,0.00,WUHU216HW,2013-08-11 01:05:00,
2013-08-10 20:30:00,92.9,67.6,29.97,North,0,0.0,0.0,44,0.00,,,0.00,WUHU216HW,2013-08-11 01:30:00,
2013-08-10 20:35:00,92.9,67.6,29.97,North,0,0.0,0.0,44,0.00,,,0.00,WUHU216HW,2013-08-11 01:35:00,
2013-08-10 21:00:00,92.0,67.4,29.97,North,0,0.0,0.0,45,0.00,,,0.00,WUHU216HW,2013-08-11 02:00:00,
2013-08-10 21:05:00,92.0,67.4,29.97,North,0,0.0,0.0,45,0.00,,,0.00,WUHU216HW,2013-08-11 02:05:00,
2013-08-10 21:30:00,91.1,67.3,29.98,North,0,0.0,0.0,46,0.00,,,0.00,WUHU216HW,2013-08-11 02:30:00,
2013-08-10 21:35:00,91.1,67.3,29.98,North,0,0.0,0.0,46,0.00,,,0.00,WUHU216HW,2013-08-11 02:35:00,
2013-08-10 22:00:00,90.4,67.3,29.99,North,0,0.0,0.0,47,0.00,,,0.00,WUHU216HW,2013-08-11 03:00:00,
2013-08-10 22:05:00,90.4,67.3,29.99,North,0,0.0,0.0,47,0.00,,,0.00,WUHU216HW,2013-08-11 03:05:00,
2013-08-10 22:30:00,89.3,67.0,29.99,North,0,0.0,0.0,48,0.00,,,0.00,WUHU216HW,2013-08-11 03:30:00,
2013-08-10 22:35:00,89.3,67.0,29.99,North,0,0.0,0.0,48,0.00,,,0.00,WUHU216HW,2013-08-11 03:35:00,
2013-08-10 23:00:00,88.2,67.3,30.01,North,0,0.0,0.0,50,0.00,,,0.00,WUHU216HW,2013-08-11 04:00:00,
2013-08-10 23:01:00,88.2,67.3,30.01,North,0,0.0,0.0,50,0.00,,,0.00,WUHU216HW,2013-08-11 04:01:00,
2013-08-10 23:06:00,88.2,67.3,30.01,North,0,0.0,0.0,50,0.00,,,0.00,WUHU216HW,2013-08-11 04:06:00,
2013-08-10 23:30:00,88.0,68.2,30.02,North,0,0.0,0.0,52,0.00,,,0.00,WUHU216HW,2013-08-11 04:30:00,
2013-08-10 23:35:00,88.0,68.2,30.02,North,0,0.0,0.0,52,0.00,,,0.00,WUHU216HW,2013-08-11 04:35:00,